Location: Borgo
(42.3939°N, 9.2791°E)
Time: 19:28:46
(UTC+00:00)

USA 116 - Pass Details

Date: 27 February 2020
Orbit: 405 x 834 km, 97.9° (Epoch: 18 November)

Event Time Altitude Azimuth Distance (km) Brightness Sun altitude
Rises 17:51:52 0° 13° (NNE) 2,800 7.2 -8.6°
Reaches altitude 10° 17:53:55 10° 15° (NNE) 1,958 6.3 -9.0°
Maximum altitude 17:58:13 81° 103° (ESE) 672 4.0 -9.8°
Drops below altitude 10° 18:03:01 10° 191° (S) 2,186 6.9 -10.7°
Sets 18:05:24 0° 192° (SSW) 3,156 7.8 -11.1°
